Time,TemperatureF,DewpointF,PressureIn,WindDirection,WindDirectionDegrees,WindSpeedMPH,WindSpeedGustMPH,Humidity,HourlyPrecipIn,Conditions,Clouds,dailyrainin,SoftwareType,DateUTC
2013-07-23 00:00:00,78.4,72.8,29.88,WNW,292,2.0,5.0,83,0.00,,,0.00,Wunderground v.1.15,2013-07-23 04:00:00,
2013-07-23 00:05:00,78.3,72.7,29.88,WNW,283,1.0,5.0,83,0.00,,,0.00,Wunderground v.1.15,2013-07-23 04:05:00,
2013-07-23 00:10:00,78.2,72.6,29.87,SSW,194,1.0,1.0,83,0.00,,,0.00,Wunderground v.1.15,2013-07-23 04:10:00,
2013-07-23 00:20:00,78.0,72.4,29.87,NNW,336,2.0,3.0,83,0.00,,,0.00,Wunderground v.1.15,2013-07-23 04:20:00,
2013-07-23 00:25:00,77.9,72.7,29.87,South,184,2.0,3.0,84,0.00,,,0.00,Wunderground v.1.15,2013-07-23 04:25:00,
2013-07-23 00:30:00,77.8,72.6,29.87,WNW,293,2.0,2.0,84,0.00,,,0.00,Wunderground v.1.15,2013-07-23 04:30:00,
2013-07-23 00:40:00,77.6,72.4,29.87,South,182,2.0,2.0,84,0.00,,,0.00,Wunderground v.1.15,2013-07-23 04:40:00,
2013-07-23 00:50:00,77.4,72.2,29.87,SSE,167,1.0,3.0,84,0.00,,,0.00,Wunderground v.1.15,2013-07-23 04:50:00,
2013-07-23 01:00:00,77.3,72.4,29.87,SSW,196,2.0,2.0,85,0.00,,,0.00,Wunderground v.1.15,2013-07-23 05:00:00,
2013-07-23 01:10:00,77.1,72.2,29.87,South,178,1.0,5.0,85,0.00,,,0.00,Wunderground v.1.15,2013-07-23 05:10:00,
2013-07-23 01:15:00,77.0,72.1,29.87,WNW,293,2.0,5.0,85,0.00,,,0.00,Wunderground v.1.15,2013-07-23 05:15:00,
2013-07-23 01:25:00,76.9,72.0,29.87,ESE,119,2.0,2.0,85,0.00,,,0.00,Wunderground v.1.15,2013-07-23 05:25:00,
2013-07-23 01:30:00,76.9,72.0,29.87,WSW,256,2.0,3.0,85,0.00,,,0.00,Wunderground v.1.15,2013-07-23 05:30:00,
2013-07-23 01:40:00,76.7,71.8,29.87,West,279,2.0,2.0,85,0.00,,,0.00,Wunderground v.1.15,2013-07-23 05:40:00,
2013-07-23 01:45:00,76.7,71.8,29.87,WNW,296,2.0,3.0,85,0.00,,,0.00,Wunderground v.1.15,2013-07-23 05:45:00,
2013-07-23 01:55:00,76.6,72.1,29.87,SSE,161,2.0,2.0,86,0.00,,,0.00,Wunderground v.1.15,2013-07-23 05:55:00,
2013-07-23 02:05:00,76.4,71.9,29.86,NW,317,2.0,2.0,86,0.00,,,0.00,Wunderground v.1.15,2013-07-23 06:05:00,
2013-07-23 02:15:00,76.3,72.1,29.86,WNW,282,2.0,2.0,87,0.00,,,0.00,Wunderground v.1.15,2013-07-23 06:15:00,
2013-07-23 02:20:00,76.2,72.0,29.86,SW,232,2.0,2.0,87,0.00,,,0.00,Wunderground v.1.15,2013-07-23 06:20:00,
2013-07-23 02:30:00,76.1,71.9,29.86,South,174,2.0,2.0,87,0.00,,,0.00,Wunderground v.1.15,2013-07-23 06:30:00,
2013-07-23 02:35:00,76.0,72.2,29.86,SW,227,2.0,2.0,88,0.00,,,0.00,Wunderground v.1.15,2013-07-23 06:35:00,
2013-07-23 02:45:00,75.9,72.1,29.86,South,188,2.0,4.0,88,0.00,,,0.00,Wunderground v.1.15,2013-07-23 06:45:00,
2013-07-23 02:55:00,75.9,72.4,29.85,SSW,202,2.0,3.0,89,0.00,,,0.00,Wunderground v.1.15,2013-07-23 06:55:00,
2013-07-23 03:00:00,75.9,72.4,29.85,WNW,290,2.0,2.0,89,0.00,,,0.00,Wunderground v.1.15,2013-07-23 07:00:00,
2013-07-23 03:10:00,75.8,72.3,29.85,NW,314,2.0,3.0,89,0.00,,,0.00,Wunderground v.1.15,2013-07-23 07:10:00,
2013-07-23 03:15:00,75.7,72.6,29.85,WNW,289,2.0,3.0,90,0.00,,,0.00,Wunderground v.1.15,2013-07-23 07:15:00,
2013-07-23 03:25:00,75.7,72.6,29.85,West,267,1.0,1.0,90,0.00,,,0.00,Wunderground v.1.15,2013-07-23 07:25:00,
2013-07-23 03:35:00,75.7,72.6,29.85,SE,135,2.0,5.0,90,0.00,,,0.00,Wunderground v.1.15,2013-07-23 07:35:00,
2013-07-23 03:40:00,75.7,72.6,29.85,SSE,164,2.0,3.0,90,0.00,,,0.00,Wunderground v.1.15,2013-07-23 07:40:00,
2013-07-23 03:50:00,75.8,72.7,29.85,West,259,2.0,3.0,90,0.00,,,0.00,Wunderground v.1.15,2013-07-23 07:50:00,
2013-07-23 04:00:00,75.7,72.6,29.84,South,186,2.0,3.0,90,0.00,,,0.00,Wunderground v.1.15,2013-07-23 08:00:00,
2013-07-23 04:05:00,75.7,72.6,29.84,WSW,248,2.0,3.0,90,0.00,,,0.00,Wunderground v.1.15,2013-07-23 08:05:00,
2013-07-23 04:15:00,75.6,72.5,29.84,South,175,0.0,1.0,90,0.00,,,0.00,Wunderground v.1.15,2013-07-23 08:15:00,
2013-07-23 04:20:00,75.5,72.4,29.84,SE,124,1.0,1.0,90,0.00,,,0.00,Wunderground v.1.15,2013-07-23 08:20:00,
2013-07-23 04:30:00,75.4,72.3,29.84,West,267,1.0,1.0,90,0.00,,,0.00,Wunderground v.1.15,2013-07-23 08:30:00,
2013-07-23 04:35:00,75.3,72.5,29.84,SSE,163,1.0,2.0,91,0.00,,,0.00,Wunderground v.1.15,2013-07-23 08:35:00,
2013-07-23 04:45:00,75.3,72.5,29.84,SSW,200,2.0,2.0,91,0.00,,,0.00,Wunderground v.1.15,2013-07-23 08:45:00,
2013-07-23 04:50:00,75.3,72.5,29.84,NNW,338,2.0,3.0,91,0.00,,,0.00,Wunderground v.1.15,2013-07-23 08:50:00,
2013-07-23 05:00:00,75.2,72.4,29.84,SW,232,2.0,3.0,91,0.00,,,0.00,Wunderground v.1.15,2013-07-23 09:00:00,
2013-07-23 05:05:00,75.2,72.4,29.84,SSE,161,2.0,3.0,91,0.00,,,0.00,Wunderground v.1.15,2013-07-23 09:05:00,
2013-07-23 05:15:00,75.1,72.3,29.84,West,265,2.0,2.0,91,0.00,,,0.00,Wunderground v.1.15,2013-07-23 09:15:00,
2013-07-23 05:20:00,75.1,72.3,29.84,SSW,208,1.0,1.0,91,0.00,,,0.00,Wunderground v.1.15,2013-07-23 09:20:00,
2013-07-23 05:30:00,75.1,72.3,29.84,SSW,193,2.0,3.0,91,0.00,,,0.00,Wunderground v.1.15,2013-07-23 09:30:00,
2013-07-23 05:35:00,75.1,72.3,29.84,NW,315,2.0,3.0,91,0.00,,,0.00,Wunderground v.1.15,2013-07-23 09:35:00,
2013-07-23 05:45:00,75.0,72.2,29.84,SSW,192,2.0,3.0,91,0.00,,,0.00,Wunderground v.1.15,2013-07-23 09:45:00,
2013-07-23 05:50:00,75.0,72.2,29.85,NNW,342,2.0,2.0,91,0.00,,,0.00,Wunderground v.1.15,2013-07-23 09:50:00,
2013-07-23 06:00:00,74.9,72.1,29.85,WNW,302,1.0,2.0,91,0.00,,,0.00,Wunderground v.1.15,2013-07-23 10:00:00,
2013-07-23 06:10:00,74.9,72.1,29.84,SSW,196,1.0,4.0,91,0.00,,,0.00,Wunderground v.1.15,2013-07-23 10:10:00,
2013-07-23 06:20:00,74.8,72.0,29.85,SSW,204,1.0,1.0,91,0.00,,,0.00,Wunderground v.1.15,2013-07-23 10:20:00,
2013-07-23 06:30:00,74.8,72.0,29.85,WSW,254,1.0,1.0,91,0.00,,,0.00,Wunderground v.1.15,2013-07-23 10:30:00,
2013-07-23 06:40:00,74.9,72.1,29.85,SSW,196,2.0,2.0,91,0.00,,,0.00,Wunderground v.1.15,2013-07-23 10:40:00,
2013-07-23 06:50:00,74.9,72.1,29.85,SE,138,2.0,2.0,91,0.00,,,0.00,Wunderground v.1.15,2013-07-23 10:50:00,
2013-07-23 06:55:00,75.1,72.3,29.85,NW,304,2.0,2.0,91,0.00,,,0.00,Wunderground v.1.15,2013-07-23 10:55:00,
2013-07-23 07:00:00,75.2,72.4,29.85,West,274,2.0,2.0,91,0.00,,,0.00,Wunderground v.1.15,2013-07-23 11:00:00,
2013-07-23 07:10:00,75.4,72.3,29.85,SE,141,2.0,2.0,90,0.00,,,0.00,Wunderground v.1.15,2013-07-23 11:10:00,
2013-07-23 07:20:00,75.7,72.6,29.85,West,268,1.0,3.0,90,0.00,,,0.00,Wunderground v.1.15,2013-07-23 11:20:00,
2013-07-23 07:30:00,75.9,72.4,29.85,WNW,293,2.0,2.0,89,0.00,,,0.00,Wunderground v.1.15,2013-07-23 11:30:00,
2013-07-23 07:35:00,76.0,72.5,29.85,NW,305,2.0,2.0,89,0.00,,,0.00,Wunderground v.1.15,2013-07-23 11:35:00,
2013-07-23 07:45:00,76.0,72.5,29.85,ENE,63,2.0,2.0,89,0.00,,,0.00,Wunderground v.1.15,2013-07-23 11:45:00,
2013-07-23 07:50:00,76.0,72.5,29.85,West,269,2.0,2.0,89,0.00,,,0.00,Wunderground v.1.15,2013-07-23 11:50:00,
2013-07-23 08:00:00,75.8,72.3,29.85,WSW,239,2.0,2.0,89,0.00,,,0.00,Wunderground v.1.15,2013-07-23 12:00:00,
2013-07-23 08:05:00,75.9,72.4,29.86,WNW,282,2.0,4.0,89,0.00,,,0.00,Wunderground v.1.15,2013-07-23 12:05:00,
2013-07-23 08:15:00,76.4,72.9,29.85,SW,224,2.0,4.0,89,0.00,,,0.00,Wunderground v.1.15,2013-07-23 12:15:00,
2013-07-23 08:25:00,76.9,72.7,29.86,West,279,2.0,2.0,87,0.00,,,0.00,Wunderground v.1.15,2013-07-23 12:25:00,
2013-07-23 08:35:00,77.3,72.8,29.85,SSW,201,2.0,3.0,86,0.00,,,0.00,Wunderground v.1.15,2013-07-23 12:35:00,
2013-07-23 08:40:00,77.6,73.1,29.85,NW,308,2.0,5.0,86,0.00,,,0.00,Wunderground v.1.15,2013-07-23 12:40:00,
2013-07-23 08:50:00,77.8,72.9,29.85,West,281,3.0,3.0,85,0.00,,,0.00,Wunderground v.1.15,2013-07-23 12:50:00,
2013-07-23 08:55:00,78.0,73.1,29.85,North,351,3.0,3.0,85,0.00,,,0.00,Wunderground v.1.15,2013-07-23 12:55:00,
2013-07-23 09:00:00,78.0,73.1,29.85,NW,304,3.0,3.0,85,0.00,,,0.00,Wunderground v.1.15,2013-07-23 13:00:00,
2013-07-23 09:10:00,78.0,73.1,29.85,WNW,294,3.0,3.0,85,0.00,,,0.00,Wunderground v.1.15,2013-07-23 13:10:00,
2013-07-23 09:15:00,78.0,73.1,29.84,WNW,302,3.0,3.0,85,0.00,,,0.00,Wunderground v.1.15,2013-07-23 13:15:00,
2013-07-23 09:25:00,78.1,73.2,29.84,WSW,256,2.0,2.0,85,0.00,,,0.00,Wunderground v.1.15,2013-07-23 13:25:00,
2013-07-23 09:35:00,78.0,73.1,29.84,WNW,294,3.0,5.0,85,0.00,,,0.00,Wunderground v.1.15,2013-07-23 13:35:00,
2013-07-23 09:40:00,77.9,73.0,29.84,West,279,2.0,3.0,85,0.00,,,0.00,Wunderground v.1.15,2013-07-23 13:40:00,
2013-07-23 09:50:00,77.9,73.0,29.83,NNW,346,2.0,4.0,85,0.00,,,0.00,Wunderground v.1.15,2013-07-23 13:50:00,
2013-07-23 09:55:00,77.8,72.9,29.83,SW,234,2.0,4.0,85,0.00,,,0.00,Wunderground v.1.15,2013-07-23 13:55:00,
2013-07-23 10:05:00,77.9,73.0,29.83,WNW,287,3.0,7.0,85,0.00,,,0.00,Wunderground v.1.15,2013-07-23 14:05:00,
2013-07-23 10:10:00,78.2,73.3,29.83,WNW,290,2.0,5.0,85,0.00,,,0.00,Wunderground v.1.15,2013-07-23 14:10:00,
2013-07-23 10:20:00,78.3,73.4,29.83,WNW,298,3.0,3.0,85,0.00,,,0.00,Wunderground v.1.15,2013-07-23 14:20:00,
2013-07-23 10:30:00,78.6,73.4,29.83,SSW,207,2.0,5.0,84,0.00,,,0.00,Wunderground v.1.15,2013-07-23 14:30:00,
2013-07-23 10:40:00,79.3,73.3,29.83,WNW,283,2.0,3.0,82,0.00,,,0.00,Wunderground v.1.15,2013-07-23 14:40:00,
2013-07-23 10:50:00,79.5,73.2,29.84,West,278,2.0,3.0,81,0.00,,,0.00,Wunderground v.1.15,2013-07-23 14:50:00,
2013-07-23 10:55:00,79.6,73.3,29.84,SSW,200,3.0,3.0,81,0.00,,,0.00,Wunderground v.1.15,2013-07-23 14:55:00,
2013-07-23 11:05:00,79.7,73.3,29.84,WSW,257,2.0,3.0,81,0.00,,,0.00,Wunderground v.1.15,2013-07-23 15:05:00,
2013-07-23 11:10:00,79.7,73.7,29.83,WSW,253,2.0,3.0,82,0.00,,,0.00,Wunderground v.1.15,2013-07-23 15:10:00,
2013-07-23 11:20:00,80.4,74.0,29.83,NW,319,2.0,2.0,81,0.00,,,0.00,Wunderground v.1.15,2013-07-23 15:20:00,
2013-07-23 11:25:00,80.6,73.9,29.83,WNW,288,2.0,2.0,80,0.00,,,0.00,Wunderground v.1.15,2013-07-23 15:25:00,
2013-07-23 11:35:00,81.2,73.7,29.83,SW,219,2.0,4.0,78,0.00,,,0.00,Wunderground v.1.15,2013-07-23 15:35:00,
2013-07-23 11:45:00,81.6,73.7,29.83,SSW,198,3.0,5.0,77,0.00,,,0.00,Wunderground v.1.15,2013-07-23 15:45:00,
2013-07-23 11:55:00,82.1,73.4,29.83,WNW,282,3.0,4.0,75,0.00,,,0.00,Wunderground v.1.15,2013-07-23 15:55:00,
2013-07-23 12:00:00,82.7,74.0,29.82,WSW,250,2.0,4.0,75,0.00,,,0.00,Wunderground v.1.15,2013-07-23 16:00:00,
2013-07-23 12:10:00,82.7,74.0,29.82,WSW,254,1.0,3.0,75,0.00,,,0.00,Wunderground v.1.15,2013-07-23 16:10:00,
2013-07-23 12:20:00,83.0,74.3,29.82,SE,138,2.0,2.0,75,0.00,,,0.00,Wunderground v.1.15,2013-07-23 16:20:00,
2013-07-23 12:25:00,83.1,74.4,29.82,WNW,296,2.0,5.0,75,0.00,,,0.00,Wunderground v.1.15,2013-07-23 16:25:00,
2013-07-23 12:35:00,83.3,74.1,29.82,WNW,294,2.0,3.0,74,0.00,,,0.00,Wunderground v.1.15,2013-07-23 16:35:00,
2013-07-23 12:40:00,83.3,74.1,29.82,South,180,2.0,4.0,74,0.00,,,0.00,Wunderground v.1.15,2013-07-23 16:40:00,
2013-07-23 12:50:00,83.6,74.0,29.82,WSW,247,2.0,7.0,73,0.00,,,0.00,Wunderground v.1.15,2013-07-23 16:50:00,
2013-07-23 12:55:00,83.9,74.3,29.82,SW,227,3.0,7.0,73,0.00,,,0.00,Wunderground v.1.15,2013-07-23 16:55:00,
2013-07-23 13:05:00,84.0,74.0,29.82,WSW,252,2.0,3.0,72,0.00,,,0.00,Wunderground v.1.15,2013-07-23 17:05:00,
2013-07-23 13:10:00,84.4,74.0,29.82,SW,232,3.0,3.0,71,0.00,,,0.00,Wunderground v.1.15,2013-07-23 17:10:00,
2013-07-23 13:20:00,84.8,73.9,29.81,West,273,3.0,4.0,70,0.00,,,0.00,Wunderground v.1.15,2013-07-23 17:20:00,
2013-07-23 13:25:00,85.0,73.7,29.81,NW,309,3.0,5.0,69,0.00,,,0.00,Wunderground v.1.15,2013-07-23 17:25:00,
2013-07-23 13:35:00,85.6,74.3,29.81,South,186,3.0,4.0,69,0.00,,,0.00,Wunderground v.1.15,2013-07-23 17:35:00,
2013-07-23 13:40:00,85.9,74.1,29.80,WSW,250,2.0,2.0,68,0.00,,,0.00,Wunderground v.1.15,2013-07-23 17:40:00,
2013-07-23 13:50:00,86.5,75.1,29.80,West,268,3.0,7.0,69,0.00,,,0.00,Wunderground v.1.15,2013-07-23 17:50:00,
2013-07-23 13:55:00,86.8,74.5,29.79,West,279,3.0,7.0,67,0.00,,,0.00,Wunderground v.1.15,2013-07-23 17:55:00,
2013-07-23 14:05:00,86.5,73.8,29.79,WNW,283,3.0,6.0,66,0.00,,,0.00,Wunderground v.1.15,2013-07-23 18:05:00,
2013-07-23 14:10:00,86.8,74.1,29.79,WSW,258,3.0,4.0,66,0.00,,,0.00,Wunderground v.1.15,2013-07-23 18:10:00,
2013-07-23 14:20:00,87.1,74.4,29.79,SSW,194,3.0,5.0,66,0.00,,,0.00,Wunderground v.1.15,2013-07-23 18:20:00,
2013-07-23 14:25:00,87.6,73.9,29.78,SW,227,3.0,5.0,64,0.00,,,0.00,Wunderground v.1.15,2013-07-23 18:25:00,
2013-07-23 14:35:00,87.8,74.1,29.78,West,275,3.0,3.0,64,0.00,,,0.00,Wunderground v.1.15,2013-07-23 18:35:00,
2013-07-23 14:45:00,88.2,73.5,29.78,West,281,3.0,7.0,62,0.00,,,0.00,Wunderground v.1.15,2013-07-23 18:45:00,
2013-07-23 14:55:00,87.6,74.4,29.77,South,185,3.0,3.0,65,0.00,,,0.00,Wunderground v.1.15,2013-07-23 18:55:00,
2013-07-23 15:05:00,88.1,74.8,29.77,WNW,288,2.0,4.0,65,0.00,,,0.00,Wunderground v.1.15,2013-07-23 19:05:00,
2013-07-23 15:10:00,88.2,74.9,29.77,WNW,291,3.0,3.0,65,0.00,,,0.00,Wunderground v.1.15,2013-07-23 19:10:00,
2013-07-23 15:20:00,88.0,74.3,29.77,WNW,296,3.0,3.0,64,0.00,,,0.00,Wunderground v.1.15,2013-07-23 19:20:00,
2013-07-23 15:35:00,88.5,75.7,29.76,West,270,3.0,4.0,66,0.00,,,0.00,Wunderground v.1.15,2013-07-23 19:35:00,
2013-07-23 15:45:00,89.0,75.2,29.76,WSW,240,2.0,2.0,64,0.00,,,0.00,Wunderground v.1.15,2013-07-23 19:45:00,
2013-07-23 15:50:00,88.9,74.7,29.75,WNW,301,2.0,3.0,63,0.00,,,0.00,Wunderground v.1.15,2013-07-23 19:50:00,
2013-07-23 16:00:00,89.1,75.3,29.75,WSW,241,3.0,5.0,64,0.00,,,0.00,Wunderground v.1.15,2013-07-23 20:00:00,
2013-07-23 16:05:00,88.9,74.7,29.75,NW,305,3.0,5.0,63,0.00,,,0.00,Wunderground v.1.15,2013-07-23 20:05:00,
2013-07-23 16:20:00,88.8,75.0,29.75,West,271,3.0,4.0,64,0.00,,,0.00,Wunderground v.1.15,2013-07-23 20:20:00,
2013-07-23 16:30:00,89.1,74.9,29.75,WNW,302,3.0,3.0,63,0.00,,,0.00,Wunderground v.1.15,2013-07-23 20:30:00,
2013-07-23 16:35:00,89.0,75.2,29.74,South,188,3.0,3.0,64,0.00,,,0.00,Wunderground v.1.15,2013-07-23 20:35:00,
2013-07-23 16:45:00,88.5,74.8,29.75,West,267,2.0,5.0,64,0.00,,,0.00,Wunderground v.1.15,2013-07-23 20:45:00,
2013-07-23 16:50:00,88.4,75.6,29.75,WSW,254,2.0,7.0,66,0.00,,,0.00,Wunderground v.1.15,2013-07-23 20:50:00,
2013-07-23 17:00:00,87.9,74.7,29.75,West,273,3.0,7.0,65,0.00,,,0.00,Wunderground v.1.15,2013-07-23 21:00:00,
2013-07-23 17:10:00,88.6,74.9,29.75,WSW,244,3.0,3.0,64,0.00,,,0.00,Wunderground v.1.15,2013-07-23 21:10:00,
2013-07-23 17:15:00,88.8,75.0,29.75,WNW,293,3.0,3.0,64,0.00,,,0.00,Wunderground v.1.15,2013-07-23 21:15:00,
2013-07-23 17:35:00,89.0,74.8,29.75,West,261,3.0,8.0,63,0.00,,,0.00,Wunderground v.1.15,2013-07-23 21:35:00,
2013-07-23 17:45:00,88.2,74.9,29.74,South,187,3.0,3.0,65,0.00,,,0.00,Wunderground v.1.15,2013-07-23 21:45:00,
2013-07-23 18:00:00,88.7,75.0,29.74,NW,309,2.0,2.0,64,0.00,,,0.00,Wunderground v.1.15,2013-07-23 22:00:00,
2013-07-23 18:10:00,88.9,74.7,29.74,West,267,2.0,2.0,63,0.00,,,0.00,Wunderground v.1.15,2013-07-23 22:10:00,
2013-07-23 18:15:00,89.1,75.3,29.74,ESE,113,2.0,2.0,64,0.00,,,0.00,Wunderground v.1.15,2013-07-23 22:15:00,
2013-07-23 18:25:00,88.9,75.1,29.73,WNW,288,2.0,4.0,64,0.00,,,0.00,Wunderground v.1.15,2013-07-23 22:25:00,
2013-07-23 18:40:00,88.7,75.0,29.73,West,271,2.0,2.0,64,0.00,,,0.00,Wunderground v.1.15,2013-07-23 22:40:00,
2013-07-23 18:50:00,88.6,75.3,29.73,West,261,2.0,2.0,65,0.00,,,0.00,Wunderground v.1.15,2013-07-23 22:50:00,
2013-07-23 19:00:00,88.7,75.0,29.74,SW,214,1.0,2.0,64,0.00,,,0.00,Wunderground v.1.15,2013-07-23 23:00:00,
2013-07-23 19:10:00,88.1,74.4,29.74,NW,304,2.0,2.0,64,0.00,,,0.00,Wunderground v.1.15,2013-07-23 23:10:00,
2013-07-23 19:15:00,88.0,74.8,29.74,SW,218,2.0,2.0,65,0.00,,,0.00,Wunderground v.1.15,2013-07-23 23:15:00,
2013-07-23 19:25:00,87.4,74.6,29.74,SW,236,1.0,1.0,66,0.00,,,0.00,Wunderground v.1.15,2013-07-23 23:25:00,
2013-07-23 19:35:00,86.6,74.8,29.74,SW,217,1.0,2.0,68,0.00,,,0.00,Wunderground v.1.15,2013-07-23 23:35:00,
2013-07-23 20:05:00,84.5,74.5,29.75,SW,216,1.0,1.0,72,0.00,,,0.00,Wunderground v.1.15,2013-07-24 00:05:00,
2013-07-23 20:10:00,84.2,74.6,29.75,SSW,192,1.0,1.0,73,0.00,,,0.00,Wunderground v.1.15,2013-07-24 00:10:00,
2013-07-23 20:20:00,83.8,74.2,29.75,SSW,210,1.0,1.0,73,0.00,,,0.00,Wunderground v.1.15,2013-07-24 00:20:00,
2013-07-23 20:25:00,83.6,74.4,29.75,SSW,211,1.0,2.0,74,0.00,,,0.00,Wunderground v.1.15,2013-07-24 00:25:00,
2013-07-23 20:35:00,83.2,74.4,29.75,South,185,1.0,1.0,75,0.00,,,0.00,Wunderground v.1.15,2013-07-24 00:35:00,
2013-07-23 20:40:00,83.0,74.3,29.75,South,185,0.0,0.0,75,0.00,,,0.00,Wunderground v.1.15,2013-07-24 00:40:00,
2013-07-23 20:50:00,82.6,74.3,29.75,South,185,0.0,0.0,76,0.00,,,0.00,Wunderground v.1.15,2013-07-24 00:50:00,
2013-07-23 20:55:00,82.5,74.2,29.75,South,185,0.0,0.0,76,0.00,,,0.00,Wunderground v.1.15,2013-07-24 00:55:00,
2013-07-23 21:05:00,82.1,74.2,29.76,South,185,0.0,0.0,77,0.00,,,0.00,Wunderground v.1.15,2013-07-24 01:05:00,
2013-07-23 21:15:00,81.8,73.9,29.76,South,185,0.0,0.0,77,0.00,,,0.00,Wunderground v.1.15,2013-07-24 01:15:00,
2013-07-23 21:20:00,81.7,74.2,29.76,South,185,0.0,0.0,78,0.00,,,0.00,Wunderground v.1.15,2013-07-24 01:20:00,
2013-07-23 21:35:00,81.3,74.2,29.77,South,185,0.0,0.0,79,0.00,,,0.00,Wunderground v.1.15,2013-07-24 01:35:00,
2013-07-23 21:45:00,81.0,74.2,29.77,South,185,0.0,1.0,80,0.00,,,0.00,Wunderground v.1.15,2013-07-24 01:45:00,
2013-07-23 21:55:00,80.8,74.0,29.78,SSW,195,0.0,0.0,80,0.00,,,0.00,Wunderground v.1.15,2013-07-24 01:55:00,
2013-07-23 22:05:00,80.6,73.9,29.78,South,190,0.0,0.0,80,0.00,,,0.00,Wunderground v.1.15,2013-07-24 02:05:00,
2013-07-23 22:10:00,80.5,73.8,29.78,South,191,0.0,0.0,80,0.00,,,0.00,Wunderground v.1.15,2013-07-24 02:10:00,
2013-07-23 22:20:00,80.3,73.9,29.78,South,191,0.0,0.0,81,0.00,,,0.00,Wunderground v.1.15,2013-07-24 02:20:00,
2013-07-23 22:40:00,80.1,73.7,29.79,SSW,201,0.0,0.0,81,0.00,,,0.00,Wunderground v.1.15,2013-07-24 02:40:00,
2013-07-23 22:50:00,80.0,73.6,29.78,South,188,1.0,1.0,81,0.00,,,0.00,Wunderground v.1.15,2013-07-24 02:50:00,
2013-07-23 23:00:00,79.8,73.4,29.78,SSW,204,0.0,1.0,81,0.00,,,0.00,Wunderground v.1.15,2013-07-24 03:00:00,
2013-07-23 23:05:00,79.7,73.7,29.78,South,184,0.0,1.0,82,0.00,,,0.00,Wunderground v.1.15,2013-07-24 03:05:00,
2013-07-23 23:15:00,79.6,73.6,29.78,South,191,0.0,1.0,82,0.00,,,0.00,Wunderground v.1.15,2013-07-24 03:15:00,
2013-07-23 23:25:00,79.5,73.5,29.78,WSW,241,1.0,1.0,82,0.00,,,0.00,Wunderground v.1.15,2013-07-24 03:25:00,
2013-07-23 23:40:00,79.3,73.3,29.78,SSW,209,1.0,1.0,82,0.00,,,0.00,Wunderground v.1.15,2013-07-24 03:40:00,
2013-07-23 23:50:00,79.2,73.2,29.78,SW,236,0.0,0.0,82,0.00,,,0.00,Wunderground v.1.15,2013-07-24 03:50:00,